Location: Lake Sonoma
(38.7200°N, 123.0564°W)
Time: 06:40:45

ISS - Visible Passes

Search period start: 25 October 2016 00:00
Search period end: 04 November 2016 00:00
Orbit: 400 x 409 km, 51.6° (Epoch: 25 October)

Date Brightness Start Highest point End Pass type
(mag) Time Alt. Az. Time Alt. Az. Time Alt. Az.
31 Oct -0.4 06:30:45 10° S 06:33:03 18° SE 06:35:21 10° E visible
02 Nov -2.3 06:21:31 12° SSW 06:24:22 45° SE 06:27:31 10° ENE visible
03 Nov -1.0 05:32:12 22° SE 05:32:12 22° SE 05:34:38 10° E visible
03 Nov -2.6 07:05:18 10° W 07:08:21 35° NNW 07:11:24 10° NE visible
